STARLINK-2085 (47369 NORAD) Tracking and Keplerian Element Data

This shows tracking and keplerian element data for the satellite.

Feedback or suggestion? Click here.




ElementValue
Catalog47369
NameSTARLINK-2085
Epoch Orbit1470
Epoch Day106.25002315
Epoch Year2021
RAAN151.7716
Inclination53.0539
Eccentricity0.0001206
Argument of Perigee64.921
Mean Anonmoly269.695
Mean Motion15.38320077
Decay Rate-0.01081102
L11 47369U 21005W 21106.25002315 -.01081102 00000-0 -30736-1 0 9990
L22 47369 53.0539 151.7716 0001206 64.9210 269.6950 15.38320077 14700

Live tracking and technical data element details for STARLINK-2085 (NORAD 47369). STARLINK-2085 can be tracked NOW for your location showing map with azimuth and elevation plus other details from your city location.

Track the satellite on the map from your city or location and see movement details for azimuth, elevation, latitude, longitude, range, height, and movement on the map or in text.







IsCatalogInMostPopularTable: catalog: 47369, numindb: 13
Update: records affected: 1



GetName: 47369 STARLINK-2085

Hit Count: updated at: Fri, 16 Apr 2021 11:19:49 GMT